Torna al catalogo

THOR ABLESTAR DEB

AttivoLEO
NORAD 123·DEBRIS·🇺🇸 United States

Lanciato Jun 29, 1961 da Cape Canaveral Space Force Station

Loading…

Prossimi Passaggi (prossime 24 ore)

TLE

AggiornatoSource: Space-Track

Epoca: Sep 14, 2026, 04:38 UTC

1 00123U 61015H   26257.19343193  .00000246  00000-0  97092-4 0  9997
2 00123  66.6860 190.4450 0112156 207.1124 152.4097 14.41782945392362

Traccia THOR ABLESTAR DEB in tempo reale con AllMySat

Download on the App Store